Location: Byhalia Creek
(34.8270°N, 89.8040°W)
Time: 21:00:00
(UTC+00:00)

RESURS DK-1 - Pass Details

Date: 22 April 2026
Orbit: 523 x 530 km, 69.9° (Epoch: 21 May)

Event Time Altitude Azimuth Distance (km) Brightness Sun altitude
Rises 01:03:23 0° 197° (SSW) 2,635 5.8 -6.1°
Reaches altitude 10° 01:05:32 10° 195° (SSW) 1,752 4.9 -6.5°
Maximum altitude 01:09:26 73° 111° (ESE) 550 2.1 -7.3°
Drops below altitude 10° 01:13:21 10° 26° (NNE) 1,766 4.9 -8.0°
Sets 01:15:31 0° 25° (NNE) 2,659 5.8 -8.4°
